When you browse on this site, cookies collect data to enhance your experience and personalize the content and advertising you see.
Visit our Privacy Policy to learn more. By continuing to use the site, you agree to this use of cookies and data.
  • In Hungary
  • List of Countries
  • For 7 days
  • Water Temperature
  • Weather Map
  • News
  • Weather Widgets
  • user-avatar
    Login

    Hourly Weather Sobien

    Today, 22 August, Thursday

    Time Temperature Precipitation Wind Pressure Humidity
    00:00 +15°C° 0 mm 1 mps 757 mmHg 88%
    01:00 +15°C° 0 mm 1 mps 758 mmHg 88%
    02:00 +14°C° 0 mm 1 mps 757 mmHg 89%
    03:00 +14°C° 0 mm 1 mps 757 mmHg 89%
    04:00 +14°C° 0 mm 1 mps 757 mmHg 90%
    05:00 +15°C° 0 mm 1 mps 758 mmHg 87%
    06:00 +16°C° 0 mm 1 mps 758 mmHg 83%
    07:00 +17°C° 0 mm 2 mps 758 mmHg 80%
    08:00 +18°C° 0 mm 2 mps 758 mmHg 74%
    09:00 +19°C° 0 mm 2 mps 758 mmHg 67%
    10:00 +21°C° 0 mm 3 mps 758 mmHg 61%
    11:00 +22°C° 0 mm 3 mps 758 mmHg 57%
    12:00 +22°C° 0 mm 3 mps 758 mmHg 53%
    13:00 +24°C° 0 mm 3 mps 757 mmHg 50%
    14:00 +24°C° 0 mm 3 mps 757 mmHg 50%
    15:00 +24°C° 0 mm 3 mps 757 mmHg 50%
    16:00 +24°C° 0 mm 3 mps 756 mmHg 50%
    17:00 +22°C° 0 mm 3 mps 756 mmHg 54%
    18:00 +20°C° 0 mm 3 mps 756 mmHg 58%
    19:00 +19°C° 0 mm 3 mps 756 mmHg 62%
    20:00 +18°C° 0 mm 3 mps 756 mmHg 63%
    21:00 +18°C° 0 mm 3 mps 757 mmHg 65%
    22:00 +17°C° 0 mm 2 mps 757 mmHg 67%
    23:00 +16°C° 0 mm 3 mps 757 mmHg 68%

    Tomorrow, 23 August, Friday

    Time Temperature Precipitation Wind Pressure Humidity
    00:00 +16°C° 0 mm 3 mps 757 mmHg 69%
    01:00 +16°C° 0 mm 3 mps 757 mmHg 70%
    02:00 +14°C° 0 mm 3 mps 757 mmHg 72%
    03:00 +14°C° 0 mm 3 mps 757 mmHg 74%
    04:00 +14°C° 0 mm 3 mps 757 mmHg 77%
    05:00 +16°C° 0 mm 3 mps 757 mmHg 75%
    06:00 +17°C° 0 mm 3 mps 757 mmHg 73%
    07:00 +18°C° 0 mm 3 mps 757 mmHg 71%
    08:00 +19°C° 0 mm 3 mps 757 mmHg 65%
    09:00 +21°C° 0 mm 4 mps 757 mmHg 59%
    10:00 +23°C° 0 mm 4 mps 757 mmHg 53%
    11:00 +25°C° 0 mm 4 mps 757 mmHg 50%
    12:00 +26°C° 0 mm 4 mps 756 mmHg 48%
    13:00 +27°C° 0 mm 4 mps 756 mmHg 45%
    14:00 +26°C° 0 mm 4 mps 756 mmHg 46%
    15:00 +26°C° 0 mm 4 mps 755 mmHg 47%
    16:00 +26°C° 0 mm 4 mps 755 mmHg 48%
    17:00 +25°C° 0 mm 4 mps 755 mmHg 52%
    18:00 +24°C° 0 mm 3 mps 755 mmHg 56%
    19:00 +22°C° 0 mm 3 mps 755 mmHg 60%
    20:00 +21°C° 0 mm 3 mps 755 mmHg 62%
    21:00 +20°C° 0 mm 3 mps 755 mmHg 65%
    22:00 +19°C° 0 mm 3 mps 755 mmHg 67%
    23:00 +19°C° 0 mm 3 mps 755 mmHg 68%

    Day after tomorrow, 24 August, Saturday

    Time Temperature Precipitation Wind Pressure Humidity
    00:00 +18°C° 0 mm 3 mps 755 mmHg 69%
    01:00 +18°C° 0 mm 3 mps 754 mmHg 71%
    02:00 +17°C° 0 mm 3 mps 754 mmHg 72%
    03:00 +17°C° 0 mm 3 mps 754 mmHg 73%
    04:00 +17°C° 0 mm 3 mps 754 mmHg 74%
    05:00 +17°C° 0 mm 4 mps 754 mmHg 72%
    06:00 +18°C° 0 mm 4 mps 754 mmHg 71%
    07:00 +19°C° 0 mm 4 mps 754 mmHg 69%
    08:00 +20°C° 0 mm 4 mps 754 mmHg 65%
    09:00 +22°C° 0 mm 4 mps 754 mmHg 60%
    10:00 +25°C° 0 mm 4 mps 754 mmHg 56%
    11:00 +26°C° 0 mm 5 mps 753 mmHg 54%
    12:00 +27°C° 0 mm 5 mps 753 mmHg 51%
    13:00 +28°C° 0 mm 5 mps 753 mmHg 49%
    14:00 +28°C° 0 mm 5 mps 753 mmHg 50%
    15:00 +28°C° 0 mm 5 mps 752 mmHg 51%
    16:00 +28°C° 0 mm 5 mps 752 mmHg 52%
    17:00 +26°C° 0 mm 4 mps 752 mmHg 57%
    18:00 +25°C° 0 mm 4 mps 752 mmHg 62%
    19:00 +24°C° 0 mm 3 mps 752 mmHg 67%
    20:00 +22°C° 0 mm 3 mps 752 mmHg 69%
    21:00 +21°C° 0 mm 3 mps 752 mmHg 70%
    22:00 +21°C° 0 mm 3 mps 752 mmHg 72%
    23:00 +20°C° 0 mm 3 mps 752 mmHg 73%

    25 August, Sunday

    Time Temperature Precipitation Wind Pressure Humidity
    00:00 +20°C° 0 mm 3 mps 752 mmHg 74%
    01:00 +19°C° 0 mm 3 mps 752 mmHg 75%
    02:00 +19°C° 0 mm 3 mps 752 mmHg 76%
    03:00 +18°C° 0 mm 3 mps 752 mmHg 77%
    04:00 +18°C° 0 mm 3 mps 751 mmHg 77%
    05:00 +19°C° 0 mm 4 mps 751 mmHg 75%
    06:00 +19°C° 0 mm 4 mps 751 mmHg 72%
    07:00 +20°C° 0 mm 4 mps 752 mmHg 70%
    08:00 +21°C° 0 mm 4 mps 752 mmHg 65%
    09:00 +23°C° 0 mm 5 mps 752 mmHg 60%
    10:00 +26°C° 0 mm 5 mps 752 mmHg 55%
    11:00 +27°C° 0 mm 5 mps 752 mmHg 52%
    12:00 +28°C° 0 mm 5 mps 752 mmHg 50%
    13:00 +29°C° 0 mm 5 mps 751 mmHg 47%
    14:00 +29°C° 0 mm 5 mps 751 mmHg 48%
    15:00 +29°C° 0 mm 5 mps 751 mmHg 48%
    16:00 +29°C° 0 mm 5 mps 751 mmHg 49%
    17:00 +28°C° 0.2 mm 5 mps 751 mmHg 55%
    18:00 +26°C° 0.2 mm 4 mps 751 mmHg 61%
    19:00 +23°C° 0.2 mm 4 mps 751 mmHg 67%
    20:00 +23°C° 0.1 mm 4 mps 751 mmHg 69%
    21:00 +22°C° 0.1 mm 4 mps 752 mmHg 71%
    22:00 +21°C° 0.1 mm 4 mps 752 mmHg 73%
    23:00 +21°C° 0 mm 4 mps 752 mmHg 75%

    26 August, Monday

    Time Temperature Precipitation Wind Pressure Humidity
    00:00 +20°C° 0 mm 4 mps 752 mmHg 76%
    01:00 +20°C° 0 mm 4 mps 752 mmHg 77%
    02:00 +19°C° 0 mm 4 mps 752 mmHg 79%
    03:00 +19°C° 0 mm 4 mps 751 mmHg 80%
    04:00 +19°C° 0 mm 4 mps 751 mmHg 81%
    05:00 +19°C° 0 mm 4 mps 751 mmHg 80%
    06:00 +20°C° 0 mm 4 mps 752 mmHg 78%
    07:00 +21°C° 0 mm 4 mps 752 mmHg 76%
    08:00 +23°C° 0 mm 4 mps 752 mmHg 70%
    09:00 +26°C° 0 mm 4 mps 752 mmHg 64%
    10:00 +28°C° 0 mm 4 mps 752 mmHg 58%
    11:00 +29°C° 0 mm 4 mps 752 mmHg 53%
    12:00 +30°C° 0 mm 4 mps 752 mmHg 48%
    13:00 +32°C° 0 mm 4 mps 752 mmHg 44%
    14:00 +32°C° 0 mm 4 mps 752 mmHg 43%
    15:00 +32°C° 0 mm 4 mps 751 mmHg 43%
    16:00 +32°C° 0 mm 4 mps 751 mmHg 43%
    17:00 +30°C° 0 mm 4 mps 751 mmHg 49%
    18:00 +28°C° 0 mm 3 mps 751 mmHg 55%
    19:00 +26°C° 0 mm 3 mps 751 mmHg 61%
    20:00 +25°C° 0.2 mm 3 mps 751 mmHg 65%
    21:00 +24°C° 0.2 mm 3 mps 751 mmHg 70%
    22:00 +24°C° 0.2 mm 3 mps 752 mmHg 74%
    23:00 +22°C° 0 mm 3 mps 751 mmHg 77%

    27 August, Tuesday

    Time Temperature Precipitation Wind Pressure Humidity
    00:00 +22°C° 0 mm 3 mps 751 mmHg 80%
    01:00 +21°C° 0 mm 2 mps 751 mmHg 83%
    02:00 +21°C° 0 mm 2 mps 751 mmHg 84%
    03:00 +21°C° 0 mm 2 mps 751 mmHg 84%
    04:00 +21°C° 0 mm 2 mps 751 mmHg 85%
    05:00 +21°C° 0 mm 2 mps 751 mmHg 83%
    06:00 +23°C° 0 mm 2 mps 751 mmHg 82%
    07:00 +23°C° 0 mm 2 mps 751 mmHg 80%
    08:00 +24°C° 0 mm 2 mps 751 mmHg 75%
    09:00 +26°C° 0 mm 2 mps 751 mmHg 70%
    10:00 +27°C° 0 mm 2 mps 751 mmHg 65%
    11:00 +28°C° 0 mm 2 mps 751 mmHg 62%
    12:00 +28°C° 0 mm 2 mps 751 mmHg 60%
    13:00 +29°C° 0 mm 2 mps 751 mmHg 58%
    14:00 +29°C° 0 mm 2 mps 750 mmHg 56%
    15:00 +30°C° 0 mm 2 mps 750 mmHg 54%
    16:00 +30°C° 0 mm 2 mps 750 mmHg 53%
    17:00 +29°C° 0.1 mm 2 mps 750 mmHg 57%
    18:00 +27°C° 0.1 mm 2 mps 749 mmHg 61%
    19:00 +26°C° 0.1 mm 2 mps 749 mmHg 66%
    20:00 +25°C° 0.1 mm 2 mps 749 mmHg 68%
    21:00 +24°C° 0.1 mm 2 mps 749 mmHg 71%
    22:00 +24°C° 0.1 mm 3 mps 750 mmHg 74%
    23:00 +24°C° 0 mm 2 mps 749 mmHg 75%
    Show more